Regional Weather Roundup
Issued by NWS Sterling, VA

Home | Current Version | Previous Version | Graphics & Text | Print | Product List | Glossary On
Versions: 1 2 3 4 5 6 7 8 9 10 11 12 13 14 15 16 17 18 19 20 21 22 23 24 25 26 27 28 29 30 31 32 33 34 35 36 37 38 39 40 41 42 43 44 45 46 47 48 49 50
000
ASUS41 KLWX 291910
RWRLWX

REGIONAL WEATHER ROUNDUP
NATIONAL WEATHER SERVICE BALTIMORE MD/WASHINGTON DC
300 PM EDT THU SEP 29 2016

Note: "FAIR" indicates few or no clouds below 12,000 feet
with no significant weather and/or obstructions to visibility.
 TC=TEMPERATURE CELSIUS

 * =Non NWS site. Station does not report precipitation (e.g. rain,
    snow, etc.), thunder, or fog.

DCZ001-MDZ009-015-VAZ040>042-051-053>054-292000-
WASHINGTON METRO

CITY           SKY/WX    TMP DP  RH WIND       PRES   REMARKS
WASHINGTON NAT DRIZZLE   70  68  93 E15       30.14S FOG
DULLES         DRIZZLE   68  66  93 E13G20    30.13F FOG
ANDREWS AFB    CLOUDY    68  65  93 E12       30.13S
FT BELVOIR     CLOUDY    70  65  86 VRB6      30.13S
QUANTICO       CLOUDY    73  67  81 E12       30.12F
COLLEGE PARK*  CLOUDY    64  64 100 E9        30.15S
LEESBURG*      CLOUDY    68  68 100 E8G20     30.14S FOG
MANASSAS*      LGT RAIN  70  70 100 E13G24    30.12F
GAITHERSBURG*  CLOUDY    64  63  94 E8G18     30.19S

$$

MDZ006>007-011-014-292000-
BALTIMORE METRO

CITY           SKY/WX    TMP DP  RH WIND       PRES   REMARKS
BWI AIRPORT    LGT RAIN  65  64  97 E17       30.17F VSB 3/4
MD SCIENCE CTR   N/A     65  62  90 MISG      30.18F
MARTIN STATE   DRIZZLE   66  66 100 NE8G16    30.21S
ANNAPOLIS      CLOUDY    70  65  84 E15G28    30.16F
FORT MEADE*    CLOUDY    64  63  94 NE10G17   30.19S

$$

MDZ012-015-019>023-292000-
MARYLAND EASTERN SHORE

CITY           SKY/WX    TMP DP  RH WIND       PRES   REMARKS
OCEAN CITY     HVY RAIN N/A N/A N/A NE22G35   30.15S
SALISBURY      RAIN      67  66  97 E24G33    30.13S FOG
BAY BRIDGE AP* CLOUDY   N/A N/A N/A MISG      30.15F
CAMBRIDGE*     CLOUDY    68  64  88 E15G25    30.12F
EASTON*        CLOUDY    70  64  83 E16G29    30.19R

$$

MDZ017>025-292000-
SOUTHERN MARYLAND

CITY           SKY/WX    TMP DP  RH WIND       PRES   REMARKS
PATUXENT RIVER CLOUDY    72  65  78 E18G24    30.11S
ST INIGOES     CLOUDY    73  67  81 NE16G28   30.10S
LEONARDTOWN*   CLOUDY    70  64  83 E12G20    30.13F

$$

MDZ003>005-292000-
NORTH CENTRAL MARYLAND

CITY           SKY/WX    TMP DP  RH WIND       PRES   REMARKS
FREDERICK*     CLOUDY    68  68 100 E14G22    30.18F
HAGERSTOWN APT CLOUDY    67  61  81 E15G22    30.16S

$$

MDZ501>502-292000-
WESTERN MARYLAND

CITY           SKY/WX    TMP DP  RH WIND       PRES   REMARKS
OAKLAND*       CLOUDY    57  57 100 E13G18    30.13F FOG
CUMBERLAND*    CLOUDY    64  64 100 N6        30.16F

$$

VAZ025>031-292000-
SHENANDOAH VALLEY

CITY           SKY/WX    TMP DP  RH WIND       PRES   REMARKS
WINCHESTER*    LGT RAIN  68  64  88 E17G24    30.10S
FRONT ROYAL*   CLOUDY    68  64  88 SE13G30   30.07F
LURAY*         CLOUDY   N/A N/A N/A NE5       30.08F
NEW MARKET*    CLOUDY   N/A N/A N/A CALM      30.06F
STAUNTON*      CLOUDY    72  66  82 SE6       30.09F
WAYNESBORO*    CLOUDY    71  64  79 SE5       30.08F

$$

WVZ021-048>050-054>055-292000-
EASTERN WEST VIRGINIA PANHANDLE

CITY           SKY/WX    TMP DP  RH WIND       PRES   REMARKS
MARTINSBURG    CLOUDY    67  63  87 E13       30.13S
PETERSBURG*    LGT RAIN  65  64  96 CALM      30.09F VSB 1

$$

VAZ036>039-050-292000-
CENTRAL FOOTHILLS

CITY           SKY/WX    TMP DP  RH WIND       PRES   REMARKS
CHARLOTTESVILL LGT RAIN  76  70  82 E7        30.06F
CULPEPER*      CLOUDY    73  69  87 E9        30.10F
ORANGE*          N/A     72  72 100 NE12G21   30.09F
GORDONSVILLE*  CLOUDY    73  70  88 E7        30.07F
WARRENTON*     CLOUDY    73  65  78 E9G17     30.10S

$$

VAZ055>057-292000-
NORTH AND CENTRAL PIEDMONT

CITY           SKY/WX    TMP DP  RH WIND       PRES   REMARKS
FREDERICKSBRG* LGT RAIN  72  72 100 E7        30.09F
STAFFORD*      CLOUDY    70  69  96 E8        30.15S

$$

NCZ024-NYZ072-PAZ021-071-VAZ022-071-292000-
OTHER REGIONAL OBSERVATIONS

CITY           SKY/WX    TMP DP  RH WIND       PRES   REMARKS
NEW YORK CITY  CLOUDY    63  52  67 E10G20    30.38F
PITTSBURGH     CLOUDY    62  60  93 E10       30.08F
ROANOKE        CLOUDY    73  64  73 SE8       30.04F
RICHMOND       CLOUDY    74  70  87 E13       30.05F
RALEIGH        PTSUNNY   78  69  73 SE12      30.00F

$$

ANZ530>537-292000-
MARINE OBSERVATIONS

STATION/POSITION TIME  TEMP    WIND        PRES
                       AIR SEA DIR/SP/G
                 (UTC) (F)     (DEG/KT/KT) (MB)
THOMAS PT LIGHT  1900   69 73   90/ 21/ 24 1022.0S
BALT KEY BRIDGE  1848   65      60/ 14/ 16 1022.0F
COVE POINT       1848   71     120/ 13/ 23 1020.6S
LEWISETTA        1842   73 73  100/ 23/ 27 1018.7F
SOLOMONS ISLAND  1842   72 74   80/ 20/ 22   N/A
PINEY POINT      1848          100/ 20/ 26   N/A

$$




USA.gov is the U.S. government's official web portal to all federal, state and local government web resources and services.